Charlottetown, Prince Edward Island

1:53 AM ADT on September 26, 2016 (GMT -0300)
Charlottetown

Weather History for CYYG - March, 2013

Change the Weather History Date:

Sunday, March 3, 2013

  Actual Average Record
Temperature  
Mean Temperature 33 °F -  
Max Temperature 36 °F 28 °F 46 °F (2002)
Min Temperature 30 °F 15 °F -4 °F (2014)
Degree Days  
Heating Degree Days 32    
Moisture  
Dew Point 31 °F    
Average Humidity 94    
Maximum Humidity 100    
Minimum Humidity 64    
Precipitation  
Precipitation 0.08 in - - ()
Sea Level Pressure  
Sea Level Pressure 29.45 in    
Wind  
Wind Speed 7 mph ()    
Max Wind Speed 12 mph    
Max Gust Speed -    
Visibility 4.3 miles    
Events Fog , Snow    
Averages and records for this station are not official NWS values.
T = Trace of Precipitation, MM = Missing Value Source: Averaged Metar Reports

Daily Weather History Graph

Daily Weather History Graph

Search for Another Location

Airport or City:

Trip Planner

Search our weather history database for the weather conditions in past years. The results will help you decide how hot, cold, wet, or windy it might be!

Date:

Astronomy

Mar. 03, 2013 Rise Set
Actual Time 6:47 AM AST 6:01 PM AST
Civil Twilight 6:17 AM AST 6:31 PM AST
Nautical Twilight 5:42 AM AST 7:06 PM AST
Astronomical Twilight 5:07 AM AST 7:41 PM AST
Moon No Moon Rise 9:36 AM AST (3/3)
Length of Visible Light 12h 14m
Length of Day
11h 14m
Waning Gibbous, 64% of the Moon is Illuminated
Mar 3
Waning Gibbous
Mar 4
Last Quarter
Mar 11
New
Mar 19
First Quarter
Mar 27
Full

Hourly Weather History & Observations

Time (AST) Temp. Windchill Dew Point Humidity Pressure Visibility Wind Dir Wind Speed Gust Speed Precip Events Conditions
12:00 AM 30.2 °F 20.8 °F 30.2 °F 100% 29.46 in 0.2 mi North 11.5 mph - N/A Fog Light Freezing Drizzle
12:40 AM 30.2 °F 20.8 °F 30.2 °F 100% 29.46 in 0.8 mi North 11.5 mph - N/A   Light Freezing Drizzle
1:00 AM 30.2 °F 20.8 °F 30.2 °F 100% 29.47 in 0.8 mi North 11.5 mph - N/A   Mist
2:00 AM 30.2 °F 24.3 °F 30.2 °F 100% 29.47 in 3.0 mi North 5.8 mph - N/A   Overcast
3:00 AM 30.2 °F 24.3 °F 30.2 °F 100% 29.47 in 2.0 mi North 5.8 mph - N/A   Overcast
4:00 AM 30.2 °F 24.3 °F 30.2 °F 100% 29.47 in 2.0 mi North 5.8 mph - N/A   Overcast
5:00 AM 30.2 °F 24.3 °F 30.2 °F 100% 29.47 in 3.0 mi North 5.8 mph - N/A   Overcast
6:00 AM 30.2 °F - 30.2 °F 100% 29.48 in 1.0 mi Calm Calm - N/A   Overcast
6:21 AM 30.2 °F - 30.2 °F 100% 29.48 in 0.5 mi Calm Calm - N/A Fog Light Freezing Fog
7:00 AM 30.2 °F - 30.2 °F 100% 29.49 in 0.5 mi Calm Calm - N/A Fog Light Freezing Fog
7:48 AM 30.2 °F - 30.2 °F 100% 29.49 in 0.2 mi Calm Calm - N/A Fog Light Freezing Fog
8:00 AM 30 °F - 29 °F 97% 29.49 in 0 mi Calm Calm - - Fog Heavy Fog
8:00 AM 30.2 °F - 30.2 °F 100% 29.49 in 0.4 mi NW 2.3 mph - N/A Fog Light Freezing Fog
9:00 AM 32.0 °F 26.4 °F 32.0 °F 100% 29.48 in 0.4 mi NW 5.8 mph - N/A Fog Fog
10:00 AM 33.8 °F 28.6 °F 33.8 °F 100% 29.48 in 0.4 mi NW 5.8 mph - N/A Fog Fog
10:17 AM 33.8 °F 28.6 °F 32.0 °F 93% 29.48 in 0.5 mi NW 5.8 mph - N/A Fog Fog
11:00 AM 32.0 °F 26.4 °F 32.0 °F 100% 29.48 in 0.5 mi West 5.8 mph - N/A Fog Fog
11:14 AM 32.0 °F 26.4 °F - N/A% - 1.5 mi West 5.8 mph - N/A   Overcast
12:00 PM 35.6 °F 28.0 °F 33.8 °F 93% 29.46 in 3.0 mi West 10.4 mph - N/A   Overcast
12:46 PM 35.6 °F 28.0 °F - N/A% - 4.0 mi West 10.4 mph - N/A   Overcast
1:00 PM 35.6 °F 28.0 °F 33.8 °F 93% 29.44 in 4.0 mi West 10.4 mph - N/A   Overcast
2:00 PM 36 °F - 35 °F 95% 29.42 in 7 mi Calm Calm - -   Partly Cloudy
2:00 PM 35.6 °F 28.0 °F 35.6 °F 100% 29.42 in 8.0 mi West 10.4 mph - N/A   Overcast
2:26 PM 35.6 °F 28.0 °F 35.6 °F 100% 29.42 in 3.0 mi West 10.4 mph - N/A   Light Drizzle
2:48 PM 35.6 °F 28.0 °F 35.6 °F 100% 29.41 in 2.0 mi West 10.4 mph - N/A   Light Drizzle
3:00 PM 35.6 °F 28.0 °F 35.6 °F 100% 29.41 in 2.0 mi West 10.4 mph - N/A   Light Drizzle
3:27 PM 35.6 °F 28.0 °F 35.6 °F 100% 29.41 in 5.0 mi West 10.4 mph - N/A   Light Drizzle
4:00 PM 35.6 °F 28.0 °F 33.8 °F 93% 29.41 in 6.0 mi SW 10.4 mph - N/A   Light Drizzle
4:28 PM 35.6 °F 28.0 °F 33.8 °F 93% 29.41 in 10.0 mi SW 10.4 mph - N/A   Light Drizzle
5:00 PM 35.6 °F 28.0 °F 33.8 °F 93% 29.41 in 12.0 mi SW 10.4 mph - N/A Snow Light Snow Showers
5:26 PM 33.8 °F 25.8 °F - N/A% - 12.0 mi SW 10.4 mph - N/A Snow Light Snow Showers
6:00 PM 33.8 °F 28.6 °F 32.0 °F 93% 29.42 in 10.0 mi SW 5.8 mph - N/A Snow Light Snow Showers
7:00 PM 32.0 °F 26.4 °F 30.2 °F 93% 29.42 in 10.0 mi SW 5.8 mph - N/A Snow Light Snow Showers
8:00 PM 32 °F - 25 °F 68% 29.43 in 12 mi Calm Calm - - Snow Light Snow Showers
9:00 PM 32.0 °F 26.4 °F 23.0 °F 69% 29.41 in 12.0 mi NNE 5.8 mph - N/A Snow Light Snow Showers
10:00 PM 32.0 °F 26.4 °F 21.2 °F 64% 29.42 in 10.0 mi NNE 5.8 mph - N/A Snow Light Snow Showers
11:00 PM 30.2 °F 24.3 °F - N/A% 29.42 in 10.0 mi SW 5.8 mph - N/A Snow Light Snow Showers
11:39 PM 30.2 °F 24.3 °F 19.4 °F 64% 29.41 in 3.0 mi SW 5.8 mph - N/A Snow Light Snow Showers